Location: Casteau
(50.5142°N, 4.0161°E)
Time: 03:17:35
(UTC+00:00)

CZ-4 R/B - Pass Details

Date: 18 September 2020
Orbit: 530 x 600 km, 97.7° (Epoch: 24 October)

Event Time Altitude Azimuth Distance (km) Brightness Sun altitude
Rises 18:44:50 0° 186° (S) 2,837 4.9 -9.4°
Reaches altitude 10° 18:47:07 10° 195° (SSW) 1,940 4.1 -9.8°
Maximum altitude 18:51:02 37° 263° (W) 947 3.2 -10.4°
Drops below altitude 10° 18:54:58 10° 331° (NNW) 1,942 4.8 -11.0°
Sets 18:57:17 0° 340° (NNW) 2,841 5.5 -11.3°
